Location: Unspecified
(0.0000°N, 0.0000°E)
Time: 10:07:11
(UTC+00:00)

AQUARIUS - Visible Passes

Search period start: 19 March 2019 00:00
Search period end: 29 March 2019 00:00
Orbit: 651 x 652 km, 98.0° (Epoch: 18 March)

Date Brightness Start Highest point End Pass type
(mag) Time Alt. Az. Time Alt. Az. Time Alt. Az.
20 Mar 7.6 04:57:44 10° E 04:59:22 12° ESE 05:01:00 10° SE visible
20 Mar 7.2 18:46:08 10° SSW 18:49:23 20° WSW 18:52:37 10° NW visible
21 Mar 6.5 05:22:33 10° NE 05:26:22 28° ESE 05:30:11 10° SSE visible
23 Mar 6.3 18:29:58 10° SSW 18:33:57 32° WSW 18:37:56 10° NW visible
24 Mar 7.2 05:08:00 10° ENE 05:10:56 17° ESE 05:13:52 10° SE visible
24 Mar 7.4 18:58:42 10° SW 19:00:57 14° WSW 19:03:12 10° WNW visible
25 Mar 5.8 05:33:44 10° NNE 05:37:56 40° ESE 05:42:08 10° S visible
27 Mar 7.8 04:54:54 10° E 04:55:31 10° ESE 04:56:08 10° ESE visible
27 Mar 7.0 18:42:02 10° SSW 18:45:31 22° WSW 18:48:59 10° NW visible
28 Mar 6.8 05:18:51 10° NE 05:22:30 24° ESE 05:26:09 10° SSE visible
